FW7487 Weather Reports


Display with metric or nautical units.
time (UTC)temp
F
wind
direction
speed
MPH
gust
MPH
rain 1hr
in
rain 24hr
in
rain mn
in
humidity
%
barometer
mb
20260905093123 74 0 0.0 0.0 0.00 0.00 0.00 96 1015.2
20260905091602 74 0 0.0 0.0 0.00 0.00 0.00 96 1015.1
20260905084608 75 0 0.0 0.0 0.00 0.00 0.00 96 1014.8
20260905083101 75 0 0.0 0.0 0.00 0.00 0.00 95 1015.0
20260905081557 75 0 0.0 3.0 0.00 0.00 0.00 95 1014.9
20260905080106 75 0 0.0 3.0 0.00 0.00 0.00 95 1014.5
20260905074559 75 0 1.0 4.0 0.00 0.00 0.00 95 1014.5
20260905073111 75 0 0.0 0.0 0.00 0.00 0.00 94 1014.9
20260905071557 76 0 0.0 0.0 0.00 0.00 0.00 94 1014.9
20260905070056 76 0 0.0 2.0 0.00 0.00 0.00 94 1014.9
20260905064608 76 0 0.0 1.0 0.00 0.00 0.00 93 1015.0
20260905063103 76 0 0.0 1.0 0.00 0.00 0.00 93 1015.4
20260905061605 77 0 0.0 1.0 0.00 0.00 0.00 93 1015.4
20260905060104 77 0 0.0 3.0 0.00 0.00 0.00 92 1015.6
20260905054608 77 0 0.0 3.0 0.00 0.00 0.00 92 1015.5
20260905053100 77 0 0.0 1.0 0.00 0.00 0.00 92 1015.7
20260905051609 77 0 0.0 0.0 0.00 0.00 0.00 92 1015.7
20260905044604 78 0 0.0 1.0 0.00 0.00 0.00 90 1015.9
20260905043059 78 0 0.0 1.0 0.00 0.00 0.00 90 1015.9
20260905041608 78 133 0.0 2.0 0.00 0.00 0.00 90 1015.9
20260905040107 78 0 0.0 3.0 0.00 0.00 0.00 89 1015.9
20260905034607 79 177 0.0 3.0 0.00 0.00 0.00 89 1016.0
20260905033108 79 175 0.0 4.0 0.00 0.00 0.00 88 1016.0
20260905031606 79 175 1.0 4.0 0.00 0.00 0.00 86 1016.0
20260905030111 80 0 0.0 3.0 0.00 0.00 0.00 85 1016.2
20260905024612 81 155 1.0 5.0 0.00 0.00 0.00 83 1016.4
20260905023059 82 172 1.0 8.0 0.00 0.00 0.00 80 1016.5
20260905021614 82 0 0.0 1.0 0.00 0.00 0.00 77 1016.6
20260905020059 83 0 0.0 0.0 0.00 0.00 0.00 75 1016.3
20260905014553 83 0 0.0 1.0 0.00 0.00 0.00 73 1016.4
20260905013119 84 0 0.0 0.0 0.00 0.00 0.00 72 1016.5
20260905011612 84 0 0.0 1.0 0.00 0.00 0.00 70 1016.3
20260905010105 84 172 0.0 4.0 0.00 0.00 0.00 70 1016.0
20260905004554 85 0 0.0 0.0 0.00 0.00 0.00 68 1015.7
20260905003050 86 0 0.0 0.0 0.00 0.00 0.00 67 1015.5
20260905001558 87 0 0.0 0.0 0.00 0.00 0.00 65 1015.2
20260905000056 89 0 0.0 2.0 0.00 0.00 0.00 59 1014.9
20260904234602 91 119 0.0 4.0 0.00 0.00 0.00 56 1014.9
20260904233101 91 0 1.0 4.0 0.00 0.00 0.00 56 1014.7
20260904231601 92 55 1.0 6.0 0.00 0.00 0.00 55 1014.7
20260904230108 92 54 1.0 4.0 0.00 0.00 0.00 55 1014.7
20260904224622 93 170 1.0 10.0 0.00 0.00 0.00 53 1014.9
20260904223111 94 85 0.0 6.0 0.00 0.00 0.00 51 1015.0
20260904221627 94 167 2.0 10.0 0.00 0.00 0.00 50 1015.0
20260904220101 93 321 1.0 6.0 0.00 0.00 0.00 53 1015.1
20260904214600 95 223 2.0 6.0 0.00 0.00 0.00 50 1015.2
20260904213102 96 132 1.0 7.0 0.00 0.00 0.00 49 1015.1
20260904211556 94 123 5.0 11.0 0.00 0.00 0.00 51 1015.2
20260904210116 97 352 1.0 7.0 0.00 0.00 0.00 49 1015.3
20260904204558 96 67 3.0 8.0 0.00 0.00 0.00 50 1015.3
20260904203054 96 57 3.0 8.0 0.00 0.00 0.00 47 1015.4
20260904201556 96 109 3.0 10.0 0.00 0.00 0.00 51 1015.4
20260904200118 96 150 2.0 8.0 0.00 0.00 0.00 50 1015.8
20260904194603 95 31 2.0 9.0 0.00 0.00 0.00 53 1015.8
20260904193101 95 112 2.0 7.0 0.00 0.00 0.00 53 1016.1
20260904191600 93 58 2.0 9.0 0.00 0.00 0.00 55 1016.4
20260904190059 93 71 1.0 7.0 0.00 0.00 0.00 56 1016.6
20260904184605 92 146 2.0 7.0 0.00 0.00 0.00 57 1016.9
20260904183102 92 41 1.0 5.0 0.00 0.00 0.00 57 1017.3
20260904181559 90 54 1.0 6.0 0.00 0.00 0.00 60 1017.5
20260904180108 91 317 2.0 6.0 0.00 0.00 0.00 59 1017.7
20260904174603 90 181 2.0 6.0 0.00 0.00 0.00 63 1017.9
20260904173058 91 141 2.0 7.0 0.00 0.00 0.00 61 1018.0
20260904171619 91 66 2.0 7.0 0.00 0.00 0.00 62 1018.0
20260904170055 91 165 2.0 6.0 0.00 0.00 0.00 61 1018.1
20260904164601 90 15 4.0 9.0 0.00 0.00 0.00 63 1018.3
20260904163100 90 169 3.0 8.0 0.00 0.00 0.00 63 1018.4
20260904161601 90 158 3.0 10.0 0.00 0.00 0.00 64 1018.6
20260904160059 89 96 2.0 8.0 0.00 0.00 0.00 65 1018.5
20260904154602 88 0 2.0 8.0 0.00 0.00 0.00 68 1018.6
20260904153115 87 117 1.0 5.0 0.00 0.00 0.00 72 1018.7
20260904151558 86 161 2.0 8.0 0.00 0.00 0.00 70 1018.5
20260904150054 86 128 2.0 7.0 0.00 0.00 0.00 73 1018.7
20260904144601 85 167 2.0 6.0 0.00 0.00 0.00 77 1018.6
20260904143120 84 80 1.0 4.0 0.00 0.00 0.00 78 1018.5
20260904141558 82 211 0.0 4.0 0.00 0.00 0.00 82 1018.6
20260904140058 80 329 0.0 4.0 0.00 0.00 0.00 85 1018.3
20260904134603 79 67 1.0 5.0 0.00 0.00 0.00 87 1018.3
20260904133113 78 171 1.0 4.0 0.00 0.00 0.00 89 1018.2
20260904131601 78 178 0.0 3.0 0.00 0.00 0.00 90 1018.2
20260904130106 77 0 1.0 3.0 0.00 0.00 0.00 91 1018.2
20260904124601 76 0 0.0 2.0 0.00 0.00 0.00 91 1018.2
20260904123101 76 0 0.0 3.0 0.00 0.00 0.00 92 1018.0
20260904121600 75 0 1.0 3.0 0.00 0.00 0.00 93 1018.0
20260904120104 73 0 0.0 1.0 0.00 0.00 0.00 95 1018.1
20260904114606 72 0 0.0 2.0 0.00 0.00 0.00 95 1017.9
20260904113049 72 0 0.0 0.0 0.00 0.00 0.00 95 1017.6
20260904111604 72 0 0.0 0.0 0.00 0.00 0.00 94 1017.5
20260904110058 72 0 0.0 1.0 0.00 0.00 0.00 94 1017.5
20260904104555 72 0 0.0 0.0 0.00 0.00 0.00 94 1017.6
20260904103059 73 0 0.0 0.0 0.00 0.00 0.00 94 1017.5
20260904101605 73 0 0.0 0.0 0.00 0.00 0.00 94 1017.5
20260904100057 73 0 0.0 0.0 0.00 0.00 0.00 93 1017.5
20260904094551 73 0 0.0 0.0 0.00 0.00 0.00 93 1017.4